Wind_Speed
49 49 50 51 52 52 52 52 52 52 53 53 54 54 55 55 56 56 56 56 56 56 56 56 56 56 55 55 55 54 54 54 54 54 54 54 55 54
50 51 52 52 53 53 53 53 54 54 54 55 56 57 57 57 57 57 57 57 56 56 56 56 56 55 55 55 54 54 54 54 53 53 53 54 54 54
52 53 53 54 54 54 54 55 55 56 56 55 57 58 57 57 57 57 56 56 56 55 55 54 54 54 54 53 53 53 53 52 52 52 52 53 53 53
54 55 55 55 55 55 56 56 56 57 57 57 57 57 57 57 56 56 55 54 54 54 53 52 52 52 51 51 51 51 52 52 52 52 52 52 52 53
56 56 56 56 57 57 57 58 58 59 59 58 58 57 57 57 56 54 53 52 52 52 51 50 50 50 50 50 50 50 50 50 51 51 51 51 51 51
57 57 57 58 58 58 59 60 60 60 60 59 57 56 56 55 54 53 52 51 50 50 49 49 49 48 48 48 48 49 49 49 49 49 49 49 49 50
58 58 59 59 60 61 61 61 61 60 59 57 56 55 54 53 52 51 50 50 49 49 49 48 48 47 46 46 47 47 47 48 48 48 49 49 49 49
60 60 60 61 61 61 61 60 59 58 57 55 54 53 52 51 50 50 48 48 47 47 47 46 46 45 45 45 45 45 46 46 47 47 47 48 48 48
60 60 60 60 60 60 59 59 57 56 55 54 53 51 50 50 49 48 47 46 45 45 45 44 44 44 44 44 44 44 45 45 45 46 46 46 46 47
60 60 60 59 59 58 57 56 55 54 53 52 51 50 49 48 47 46 45 44 44 43 43 42 42 42 42 42 43 43 44 44 44 45 46 46 47 47
59 59 59 58 57 56 55 54 53 52 51 50 49 48 46 45 45 44 43 43 42 42 42 41 41 41 41 41 42 42 43 44 44 45 46 47 48 49
58 58 57 56 55 54 54 53 51 50 49 48 47 46 45 44 43 42 42 42 42 41 40 40 40 40 40 40 41 41 42 42 43 44 45 46 47 48
56 55 54 54 53 52 52 51 50 49 48 47 46 45 44 43 42 42 41 41 41 40 40 40 40 40 40 39 39 40 40 41 41 42 42 43 44 45
54 54 52 52 51 51 50 49 49 48 47 46 44 44 43 43 42 41 41 40 39 39 39 39 39 39 38 38 38 39 39 39 40 40 41 41 42 43
53 53 52 51 51 50 50 49 48 47 46 44 43 42 42 42 41 41 40 39 39 38 38 37 37 37 37 37 37 37 38 38 39 39 39 40 40 41
52 51 51 50 50 49 48 47 46 45 44 43 42 41 41 40 40 39 39 38 37 37 36 36 35 35 35 35 36 36 37 37 37 37 37 37 38 39
50 49 48 48 48 47 46 45 44 43 42 42 41 40 39 39 38 37 37 36 36 35 35 35 35 35 34 35 35 35 35 35 35 36 36 36 37 38
48 46 46 45 45 44 43 43 42 41 41 40 39 38 37 37 36 35 35 34 34 33 33 34 33 33 33 33 34 34 34 35 35 35 35 36 36 37
45 44 43 43 42 41 40 40 39 39 38 37 36 35 35 35 34 33 33 33 32 32 33 33 33 33 32 32 32 33 34 34 33 33 33 34 34 34
43 42 41 40 39 39 38 37 37 36 35 34 34 34 33 32 32 31 31 31 31 31 31 31 32 32 31 31 31 31 33 33 32 32 32 32 32 32
41 40 39 38 37 36 35 35 34 33 33 32 32 31 31 30 30 29 29 29 30 30 30 30 31 30 30 30 30 30 31 31 31 31 31 31 30 31
38 37 36 35 34 33 33 32 32 31 30 30 29 28 28 28 28 27 28 28 28 28 29 29 29 29 29 29 29 29 28 29 29 29 30 30 29 29
36 35 34 33 32 31 30 29 28 28 27 27 26 26 26 26 25 25 26 26 27 27 27 27 27 27 28 28 27 27 27 28 28 28 28 28 29 29
Wind_Direction
289 290 290 291 291 291 291 290 288 287 286 286 286 286 285 284 283 282 281 279 279 277 276 275 273 272 271 270 269 268 267 265 264 263 262 261 260 259
288 289 290 291 291 291 291 291 290 289 288 287 287 286 286 284 283 282 281 280 279 278 277 275 274 272 270 269 268 267 266 265 264 263 262 261 260 259
288 289 290 291 291 291 292 291 291 290 289 288 287 287 286 285 285 283 282 281 280 278 276 275 274 271 269 268 267 266 265 264 263 262 261 260 259 258
288 289 290 290 291 291 292 292 292 291 291 290 289 288 287 286 285 284 283 281 280 278 276 274 273 271 269 267 266 265 264 263 262 261 260 260 259 257
288 289 290 291 291 292 292 293 293 292 291 291 290 288 287 286 285 284 282 281 279 278 276 274 272 270 269 268 266 265 264 263 262 261 260 259 258 257
289 289 290 291 291 292 292 293 293 292 291 290 289 288 287 286 284 283 282 280 279 278 276 274 272 271 270 268 266 265 264 263 262 260 259 258 257 256
290 290 290 291 291 292 292 292 292 292 291 290 288 287 286 285 284 283 282 280 279 278 276 275 273 271 270 269 267 265 264 263 262 260 258 257 256 256
290 290 291 291 291 291 291 291 292 292 291 289 287 287 286 284 283 282 281 280 278 277 277 275 273 272 270 269 268 266 265 264 262 260 259 258 256 255
290 290 290 290 290 290 291 291 292 291 290 288 287 286 285 284 283 281 280 279 278 277 276 275 274 272 270 269 268 266 265 264 262 260 260 258 257 256
290 290 290 290 290 290 290 290 290 290 289 288 287 285 284 282 281 280 279 278 277 276 275 274 273 272 271 270 269 268 267 265 264 262 261 259 258 256
290 289 289 289 289 290 289 289 289 289 288 287 286 284 283 282 281 279 278 277 277 276 275 274 273 271 271 270 269 269 268 267 266 264 263 261 259 258
290 289 289 289 289 288 288 288 288 287 286 285 284 283 281 281 280 278 277 277 277 276 276 275 273 271 270 270 269 269 269 269 268 266 264 263 261 258
290 289 289 289 289 288 288 287 287 286 285 284 283 281 280 279 278 278 277 277 277 276 276 275 274 272 271 270 269 270 270 270 269 268 266 264 262 260
290 289 288 288 288 288 287 286 285 285 284 283 281 280 279 278 278 278 278 277 277 277 277 276 273 272 271 270 269 268 269 270 270 269 267 265 264 262
290 289 288 288 287 287 286 285 284 284 283 281 279 278 278 278 278 277 277 277 276 276 276 276 274 272 271 270 269 269 269 270 271 269 268 266 265 263
290 290 289 288 287 286 285 283 282 282 281 280 279 278 278 278 278 277 276 276 276 276 276 276 275 273 272 271 271 271 271 272 272 271 269 268 266 265
290 289 288 287 286 285 284 282 281 281 280 279 278 277 277 277 277 277 276 275 275 275 275 275 275 273 272 272 273 273 273 273 273 272 270 269 268 268
290 290 289 288 287 285 283 281 281 280 279 278 277 276 276 276 276 276 276 275 274 274 275 275 275 274 273 274 275 275 275 275 274 273 272 271 270 270
291 291 290 289 287 285 283 281 280 279 278 277 276 275 275 275 275 275 275 275 273 273 274 275 275 275 275 275 275 276 276 276 275 274 273 273 272 271
291 291 289 288 286 284 283 281 279 277 276 275 274 275 274 273 274 274 275 274 274 274 275 276 276 276 276 276 276 277 278 278 275 275 274 274 273 272
291 290 289 288 286 284 283 280 278 276 274 273 273 273 272 272 273 274 274 275 275 275 275 276 276 276 277 277 278 279 279 278 278 277 275 274 272 272
291 290 289 288 286 284 283 280 278 276 273 272 272 271 271 271 272 274 275 276 276 276 276 276 276 276 277 278 280 280 280 279 278 278 278 276 275 273
291 290 288 286 284 283 282 279 277 275 272 270 270 270 270 271 272 274 275 276 277 277 276 275 275 276 277 278 280 281 281 280 278 277 276 276 276 276
Height
5687 5684 5680 5676 5672 5668 5664 5660 5657 5654 5652 5648 5644 5640 5636 5633 5630 5627 5625 5623 5621 5619 5618 5617 5616 5615 5615 5614 5615 5615 5616 5616 5618 5619 5621 5623 5625 5628
5674 5671 5667 5663 5659 5655 5651 5647 5642 5639 5637 5634 5629 5625 5621 5618 5615 5612 5609 5607 5605 5603 5602 5601 5600 5599 5598 5598 5599 5599 5600 5601 5602 5603 5605 5607 5610 5612
5661 5658 5654 5649 5645 5641 5637 5632 5628 5624 5621 5619 5614 5609 5605 5602 5599 5596 5593 5591 5589 5587 5585 5584 5583 5582 5582 5582 5582 5583 5584 5585 5586 5587 5589 5592 5594 5597
5648 5644 5640 5636 5631 5627 5622 5618 5614 5609 5605 5603 5599 5594 5590 5586 5583 5580 5577 5575 5573 5571 5569 5568 5567 5566 5566 5566 5567 5567 5568 5569 5570 5572 5574 5576 5578 5580
5634 5630 5626 5621 5617 5612 5608 5603 5598 5594 5589 5586 5583 5578 5574 5570 5567 5564 5561 5559 5557 5555 5554 5553 5552 5551 5551 5551 5551 5551 5552 5553 5555 5556 5558 5560 5562 5565
5619 5614 5610 5606 5601 5597 5592 5588 5583 5578 5574 5570 5566 5562 5558 5554 5551 5548 5546 5543 5542 5540 5538 5537 5537 5536 5536 5536 5536 5536 5537 5537 5539 5540 5542 5544 5547 5549
5603 5599 5594 5590 5585 5581 5576 5572 5567 5562 5558 5553 5550 5546 5543 5539 5536 5533 5531 5528 5527 5525 5523 5522 5522 5521 5520 5520 5521 5521 5522 5523 5524 5525 5527 5529 5532 5534
5587 5582 5578 5573 5569 5564 5559 5555 5550 5546 5541 5537 5534 5531 5527 5524 5521 5518 5516 5514 5513 5512 5509 5508 5507 5506 5506 5506 5506 5507 5507 5508 5509 5511 5512 5514 5517 5519
5570 5565 5561 5556 5551 5547 5543 5539 5534 5530 5525 5522 5518 5515 5512 5509 5506 5504 5502 5500 5498 5497 5496 5495 5493 5492 5491 5491 5491 5492 5493 5493 5495 5496 5498 5500 5502 5504
5552 5548 5543 5539 5534 5530 5526 5522 5518 5514 5510 5506 5503 5500 5497 5494 5491 5489 5488 5486 5485 5483 5482 5482 5480 5479 5478 5477 5477 5478 5478 5479 5480 5482 5483 5485 5487 5489
5535 5530 5526 5522 5518 5513 5509 5506 5503 5499 5495 5491 5488 5486 5483 5480 5478 5476 5474 5473 5472 5470 5469 5468 5467 5466 5466 5465 5464 5464 5464 5465 5466 5467 5468 5469 5471 5473
5518 5513 5508 5504 5501 5496 5493 5490 5487 5484 5480 5477 5474 5472 5469 5467 5464 5463 5461 5460 5458 5458 5456 5455 5454 5453 5453 5453 5452 5451 5451 5451 5452 5452 5453 5454 5455 5457
5501 5497 5492 5488 5484 5480 5477 5474 5471 5468 5465 5463 5460 5458 5456 5454 5452 5450 5448 5447 5446 5445 5444 5442 5441 5440 5440 5440 5440 5439 5438 5438 5438 5438 5438 5439 5440 5441
5484 5480 5476 5472 5468 5465 5462 5459 5456 5453 5451 5448 5446 5444 5442 5441 5439 5437 5436 5434 5433 5432 5431 5430 5429 5428 5427 5427 5428 5427 5426 5426 5425 5425 5425 5425 5425 5426
5467 5463 5460 5456 5452 5449 5446 5444 5441 5439 5437 5435 5433 5431 5429 5428 5426 5425 5423 5422 5421 5420 5419 5417 5417 5416 5415 5415 5415 5415 5414 5414 5413 5412 5411 5411 5412 5413
5450 5447 5443 5440 5437 5434 5431 5429 5426 5424 5423 5421 5420 5418 5417 5415 5414 5413 5411 5410 5409 5408 5407 5406 5405 5404 5404 5403 5403 5402 5402 5401 5400 5399 5399 5399 5398 5399
5434 5431 5428 5425 5422 5419 5416 5414 5412 5411 5409 5408 5406 5406 5404 5403 5402 5401 5400 5399 5398 5397 5396 5395 5394 5393 5392 5392 5391 5390 5389 5389 5388 5387 5387 5387 5386 5385
5419 5416 5413 5410 5407 5404 5402 5400 5399 5397 5396 5394 5394 5393 5392 5391 5391 5389 5388 5388 5387 5386 5385 5384 5383 5382 5382 5381 5380 5378 5378 5377 5376 5375 5374 5374 5374 5373
5405 5402 5399 5396 5393 5391 5388 5387 5385 5384 5383 5382 5382 5381 5381 5380 5379 5379 5378 5377 5376 5376 5375 5374 5373 5372 5371 5371 5370 5367 5366 5365 5364 5364 5363 5362 5362 5361
5392 5389 5386 5383 5380 5378 5376 5374 5373 5372 5371 5371 5370 5370 5370 5369 5369 5368 5368 5367 5366 5366 5365 5364 5362 5362 5361 5361 5360 5358 5355 5353 5353 5352 5352 5351 5350 5350
5380 5376 5373 5371 5368 5366 5364 5363 5362 5361 5360 5360 5360 5359 5359 5359 5359 5358 5358 5357 5356 5356 5355 5354 5352 5352 5351 5350 5349 5348 5346 5343 5342 5341 5340 5340 5339 5339
5367 5365 5362 5360 5357 5356 5354 5352 5351 5351 5350 5350 5350 5350 5350 5350 5350 5349 5349 5348 5347 5346 5345 5344 5343 5342 5341 5340 5339 5337 5336 5334 5332 5330 5329 5328 5327 5327
5356 5354 5351 5349 5347 5345 5344 5343 5342 5341 5341 5341 5341 5341 5341 5341 5341 5340 5340 5339 5338 5337 5336 5335 5334 5333 5332 5330 5329 5328 5326 5324 5323 5322 5320 5318 5317 5316